Volver al catálogo

STARLINK-36819

ActivoComunicacionesSSO
NORAD 67967·PAYLOAD·🇺🇸 United States

Lanzado Feb 25, 2026 desde Vandenberg Space Force Base

Loading…

Próximos Pases (próximas 24 horas)

TLE

ActualizadoSource: CelesTrak SupGP

Época: Sep 15, 2026, 03:56 UTC

1 67967C 26038G   26258.16437500 -.00063203  00000+0 -19626-2 0  2582
2 67967  97.2845 266.5496 0001567  89.1899 278.2673 15.33461265    15

Sigue STARLINK-36819 en tiempo real con AllMySat

Download on the App Store